Location: Saint-Hippolyte
(43.6394°N, 4.7559°E)
Time: 15:30:31
(UTC+00:00)

SeaSat 1 - Pass Details

Date: 24 October 2020
Orbit: 744 x 747 km, 108.0° (Epoch: 24 November)

Event Time Altitude Azimuth Distance (km) Brightness Sun altitude
Exits shadow 18:14:54 30° 96° (E) 1,314 3.1 -17.3°
Maximum altitude 18:16:33 40° 55° (NE) 1,102 2.9 -17.6°
Drops below altitude 10° 18:21:08 10° 347° (NNW) 2,273 5.1 -18.4°
Sets 18:23:31 0° 340° (NNW) 3,201 6.0 -18.9°
